Flag for Finland Weather past 2 weeks in Kuopio, Finland

Now
23 °F

Clear.


Feels Like: 12 °F
Forecast: 20 / 26 °F
Wind: 10 mph from East

Location: Kuopio Airport

Current Time: Oct 21, 2014 at 10:59:33 PM

Latest Report: Oct 21, 2014 at 10:20 PM


Visibility: 10 mi

Pressure: 30.09 "Hg

Humidity: 80%

Dew point: 18 °F

Location of KuopioLocation

Historic Weather in Kuopio — Graph

°F

Kuopio temperature yesterday

Maximum temperature yesterday: 36 °F (at 3:20 AM)
Minimum temperature yesterday: 30 °F (at 10:50 PM)
Average temperature yesterday: 33 °F

Past Weeks' High & Low Weather Summary

 TemperatureHumidityPressure
High52 °F (Oct 9, 2:50 PM)100% (Oct 8, 9:50 PM)30.77 "Hg (Oct 8, 9:50 PM)
Low21 °F (Oct 18, 2:50 AM)64% (Oct 17, 1:20 PM)29.36 "Hg (Oct 20, 4:20 AM)
Average36 °F87%29.99 "Hg
* Reported Oct 6 9:20 PM — Oct 21 9:50 PM, Kuopio, Weather by CustomWeather, © 2014

Note: Actual official high and low records may vary slightly from our data, if they occured in-between our weather recording intervals... More about our weather records

Advertising

Kuopio weather history for previous 24 hours

 ConditionsComfort  
Time TempWeatherWind HumidityBarometerVisibility
9:50 PM
Oct 21
23 °FPassing clouds.10 mph80%30.09 "HgN/A
9:20 PM23 °FPassing clouds.10 mph80%30.09 "HgN/A
8:50 PM23 °FPassing clouds.12 mph80%30.07 "HgN/A
8:20 PM23 °FPassing clouds.10 mph80%30.07 "HgN/A
7:50 PM23 °FPassing clouds.10 mph80%30.07 "HgN/A
7:20 PM23 °FPassing clouds.12 mph80%30.04 "HgN/A
6:50 PM23 °FPassing clouds.12 mph86%30.04 "HgN/A
6:20 PM23 °FPartly sunny.12 mph80%30.01 "HgN/A
5:50 PM25 °FPartly sunny.14 mph74%30.01 "HgN/A
5:20 PM25 °FPartly sunny.10 mph80%30.01 "HgN/A
4:50 PM27 °FPartly sunny.13 mph74%29.98 "HgN/A
4:20 PM27 °FOvercast.12 mph74%29.98 "HgN/A
3:50 PM27 °FPartly sunny.13 mph69%29.98 "HgN/A
3:20 PM25 °FPartly sunny.13 mph74%29.98 "HgN/A
2:50 PM27 °FPartly sunny.9 mph74%29.95 "HgN/A
2:20 PM27 °FPartly sunny.12 mph69%29.95 "HgN/A
1:50 PM27 °FPartly sunny.12 mph74%29.95 "HgN/A
1:20 PM27 °FPartly sunny.13 mph74%29.92 "HgN/A
12:50 PM27 °FPartly sunny.10 mph74%29.92 "HgN/A
12:20 PM27 °FPartly sunny.13 mph80%29.92 "HgN/A
11:50 AM27 °FPartly sunny.12 mph74%29.89 "HgN/A
11:20 AM27 °FPartly sunny.9 mph74%29.89 "HgN/A
10:50 AM27 °FPartly sunny.9 mph74%29.89 "HgN/A
10:20 AM27 °FOvercast.15 mph74%29.86 "HgN/A
9:50 AM27 °FOvercast.15 mph74%29.86 "HgN/A
9:20 AM27 °FOvercast.17 mph74%29.86 "HgN/A
8:50 AM27 °FOvercast.12 mph80%29.83 "HgN/A
8:20 AM27 °FOvercast.12 mph74%29.83 "HgN/A
7:50 AM27 °FOvercast.15 mph74%29.80 "HgN/A
7:20 AM28 °FOvercast.13 mph74%29.80 "HgN/A
6:50 AM28 °FOvercast.9 mph74%29.80 "HgN/A
6:20 AM28 °FOvercast.10 mph80%29.80 "HgN/A
5:50 AM28 °FOvercast.9 mph74%29.77 "HgN/A
5:20 AM28 °FOvercast.15 mph80%29.77 "HgN/A
4:50 AM30 °FOvercast.13 mph75%29.74 "HgN/A
4:20 AM30 °FOvercast.17 mph75%29.74 "HgN/A
3:50 AM30 °FOvercast.13 mph80%29.74 "HgN/A
3:20 AM30 °FOvercast.10 mph80%29.71 "HgN/A
2:50 AM30 °FOvercast.13 mph86%29.71 "HgN/A
2:20 AM30 °FMostly cloudy.13 mph86%29.71 "HgN/A
1:50 AM30 °FOvercast.9 mph86%29.68 "HgN/A
1:20 AM30 °FOvercast.13 mph86%29.68 "HgN/A
12:50 AM30 °FOvercast.10 mph86%29.68 "HgN/A
12:20 AM30 °FLow clouds.10 mph93%29.65 "HgN/A
11:50 PM
Oct 20
30 °FLow clouds.14 mph93%29.65 "HgN/A
11:20 PM30 °FSnow flurries. Overcast.10 mph93%29.65 "HgN/A
10:50 PM30 °FSnow flurries. Overcast.9 mph93%29.62 "Hg6 mi
10:20 PM32 °FOvercast.13 mph87%29.62 "HgN/A
Weather by CustomWeather, © 2014

See weather overviewHow to use our weather pages